Location: ????
(30.1475°N, 31.1342°E)
Time: 08:19:47
(UTC+00:00)

Cosmos 44 Rocket - Pass Details

Date: 27 September 2022
Orbit: 656 x 733 km, 65.1° (Epoch: 28 November)

Event Time Altitude Azimuth Distance (km) Brightness Sun altitude
Exits shadow 02:53:24 12° 230° (SW) 1,959 5.1 -12.3°
Maximum altitude 02:57:32 42° 300° (WNW) 934 3.6 -11.4°
Drops below altitude 10° 03:01:59 10° 12° (NNE) 2,068 6.0 -10.4°
Sets 03:04:24 0° 19° (NNE) 2,981 6.9 -9.9°
